Wind_Speed
4 3 3 2 3 4 4 5 5 5 6 7 7 7 9 11 12 14 16 20 23 24 25 26 27 26 24 21 18 17 15 13 12 13 14 14 15 14 14 15 14 14 13 13 11 10 9 9 9 9 9 7 7 7 7 7 5 6 4 3 2 5 11 8 7 9 11 13 13 15 17 14 13 11 5 3 4 4 8 8 9 16 20 17 16 18 24 28
5 5 5 4 4 5 6 6 6 7 7 8 8 9 10 11 12 13 15 19 22 23 25 27 27 25 23 21 18 16 14 12 11 13 14 14 15 15 15 15 15 14 13 13 13 13 12 12 11 9 10 8 8 9 8 7 4 5 4 1 4 10 11 9 9 9 13 15 15 14 14 14 13 9 4 2 7 10 14 15 14 17 19 19 20 23 26 29
7 7 7 7 6 7 8 8 8 8 9 9 10 10 11 11 12 13 15 18 22 23 24 26 26 24 22 20 17 16 13 10 10 11 12 13 14 16 15 15 14 13 12 14 15 15 13 12 11 10 11 10 9 10 8 6 5 5 3 1 7 13 12 11 9 10 13 14 14 13 12 14 13 9 5 5 10 14 17 17 16 16 19 22 24 26 29 31
9 9 9 9 9 9 10 10 10 10 10 11 12 12 12 12 12 13 14 16 20 22 23 24 23 22 21 19 17 15 12 9 10 11 11 12 14 15 15 14 14 12 13 15 16 15 12 12 10 9 9 10 11 10 8 7 8 7 1 6 9 11 12 9 7 9 12 13 13 12 12 12 13 11 7 9 12 15 17 16 15 17 21 24 26 28 30 32
10 11 11 11 11 11 11 12 12 12 12 12 13 14 14 13 13 13 14 15 18 21 22 22 20 20 20 18 17 15 11 8 9 10 10 11 13 15 15 15 14 13 14 16 16 15 13 13 12 10 9 10 10 8 10 9 10 7 4 9 7 8 11 8 5 8 11 12 13 13 13 12 12 13 10 11 13 15 16 14 15 20 24 26 28 30 31 33
10 11 12 12 12 12 13 14 14 14 14 13 13 14 15 14 14 14 14 14 17 19 20 20 18 19 18 17 16 15 11 8 8 8 8 10 12 15 17 17 15 15 16 17 18 17 16 15 13 12 10 10 8 6 10 11 12 6 7 10 7 8 11 9 5 7 10 12 13 13 13 12 13 15 13 12 12 15 17 17 19 23 25 28 31 33 34 35
11 11 12 13 13 13 14 14 15 16 16 15 15 15 15 15 14 15 15 14 16 18 19 18 16 17 17 16 16 15 12 9 8 7 8 9 11 15 17 17 16 17 18 19 19 19 18 16 14 12 10 10 9 8 9 12 13 4 8 12 11 10 10 8 6 8 10 12 12 12 14 13 12 16 18 15 14 17 19 20 22 24 27 31 34 36 37 37
12 12 13 13 13 14 14 15 16 16 17 17 16 16 16 16 16 15 15 15 16 17 17 16 14 15 15 15 15 15 13 10 8 7 8 9 11 15 17 18 17 17 19 19 20 21 20 18 15 13 12 11 8 9 11 13 12 6 8 14 14 12 10 8 7 8 11 12 12 12 15 15 14 18 20 19 19 20 21 22 24 27 30 34 37 39 39 36
14 14 14 14 14 14 15 15 16 16 17 18 17 17 17 18 17 16 15 15 16 16 16 14 12 12 13 13 14 14 14 12 9 8 9 10 12 14 17 19 18 18 19 20 21 21 21 20 17 15 15 12 8 10 13 12 11 10 12 14 14 14 12 9 7 9 12 12 12 12 13 16 19 20 21 21 21 22 23 24 27 29 34 38 39 39 38 34
16 16 16 15 15 15 15 16 16 17 17 18 18 18 18 19 19 17 16 16 16 16 15 13 10 9 11 12 13 13 13 12 10 9 10 10 12 15 17 20 20 19 20 21 22 22 21 20 19 17 16 13 12 14 14 11 11 14 15 15 16 15 13 11 9 10 13 11 11 12 11 16 21 19 22 23 22 23 24 25 29 32 37 40 39 38 34 30
17 17 17 17 16 16 16 16 17 17 17 18 19 18 18 19 19 19 17 17 17 16 15 13 10 8 9 10 12 12 12 12 10 10 10 11 13 15 18 20 21 20 21 23 23 23 22 20 18 18 16 15 16 16 15 13 15 18 17 17 19 17 14 13 11 10 14 14 13 14 13 18 22 19 23 24 24 26 26 29 32 34 38 40 38 35 29 27
17 17 17 18 17 17 17 17 18 18 18 18 19 19 18 19 20 20 19 18 18 17 16 14 11 8 8 9 10 12 11 11 10 10 10 11 13 16 18 20 22 22 23 24 25 24 22 21 20 19 17 16 17 15 15 16 17 18 16 17 19 17 14 14 13 11 14 17 16 16 13 17 21 21 24 23 24 27 29 32 34 36 40 40 37 31 26 26
18 18 18 18 18 18 18 18 19 19 19 19 19 19 19 19 20 20 20 20 19 18 17 15 12 9 8 8 10 10 10 10 10 10 10 12 14 16 18 20 21 23 24 25 26 24 23 22 22 21 19 17 17 15 15 16 17 16 15 15 16 15 15 13 13 15 19 21 18 16 14 14 17 21 22 21 24 29 30 32 33 37 40 38 33 28 24 26
18 18 18 18 18 18 19 19 19 20 19 20 20 20 20 20 20 21 21 21 20 20 19 16 14 11 9 9 9 9 11 11 10 10 10 12 14 16 17 19 21 23 25 26 26 25 24 24 23 22 20 18 18 17 17 16 16 15 13 11 10 11 13 13 15 19 22 22 19 18 16 11 13 21 21 24 30 32 32 33 36 40 40 37 31 25 25 27
19 19 19 19 19 19 20 20 20 20 20 20 21 21 21 21 21 21 21 22 21 21 20 18 17 15 13 11 11 11 11 11 11 11 11 12 14 16 18 20 21 23 25 26 26 25 24 24 24 24 22 20 19 17 16 15 14 14 11 7 5 8 12 16 18 21 21 22 22 20 14 10 16 24 25 28 33 35 36 38 40 41 40 38 31 25 27 29
20 20 20 20 20 20 21 21 21 21 21 21 21 22 23 22 22 22 22 22 22 22 21 19 18 17 16 14 13 11 11 11 12 12 11 12 14 16 18 20 22 23 25 27 27 26 25 24 23 23 22 21 17 15 16 15 12 10 7 6 8 13 16 17 18 22 23 24 25 21 17 17 24 29 26 28 33 36 39 40 41 41 40 38 31 27 29 29
22 21 22 22 21 22 22 23 22 22 22 22 22 23 23 23 23 23 22 22 23 23 22 20 18 18 18 16 14 12 11 12 13 13 13 13 14 16 18 20 23 24 25 28 28 26 24 24 24 22 20 16 10 11 16 14 9 7 9 13 18 18 17 17 20 25 26 26 25 23 24 26 28 29 28 30 34 37 40 40 40 40 39 36 30 28 30 29
23 23 23 23 23 24 24 24 24 24 24 23 24 24 24 25 25 25 24 22 22 23 22 20 19 19 19 17 16 15 13 13 13 13 14 14 14 17 18 20 23 25 27 29 28 26 27 26 25 22 16 9 6 12 17 14 12 14 17 23 25 23 22 23 25 26 25 26 26 27 28 25 23 28 31 32 35 38 40 41 40 39 37 34 29 29 30 29
25 25 25 25 25 25 26 26 26 27 26 25 25 25 26 26 25 26 25 23 22 22 22 22 21 20 21 20 18 16 14 13 13 14 15 15 15 17 19 20 22 25 28 29 28 28 29 26 22 18 11 7 12 18 20 17 18 20 21 24 25 25 26 25 23 24 25 27 29 28 24 20 20 28 33 35 37 40 41 41 40 38 35 32 29 29 29 29
28 27 27 27 27 27 28 28 29 29 29 28 27 27 28 27 27 27 26 24 22 22 23 23 23 22 22 21 19 16 14 13 14 14 16 17 16 18 20 21 23 27 28 29 30 29 26 23 20 14 11 13 19 22 21 20 20 19 21 24 24 23 24 21 18 21 23 25 28 26 24 24 24 27 32 37 40 41 40 39 39 36 33 31 29 30 31 30
30 29 29 28 28 28 29 30 30 31 31 32 31 30 30 30 31 31 30 28 25 25 25 25 26 24 22 20 19 18 15 13 14 15 16 17 17 19 21 22 25 28 28 29 30 26 22 22 20 13 13 19 24 24 22 20 19 20 22 23 22 19 20 18 16 20 24 25 27 26 26 27 25 26 33 37 38 39 38 37 37 34 32 32 31 31 33 31
32 32 31 31 30 30 31 31 31 32 33 33 33 32 32 32 32 33 34 32 30 30 30 29 28 25 21 18 18 17 15 14 14 15 17 19 18 19 21 22 26 29 29 27 24 23 23 21 18 16 19 24 26 24 22 21 21 21 20 18 17 16 18 18 17 20 22 24 29 29 27 27 26 28 32 33 35 36 36 35 34 33 33 32 32 33 33 32
34 34 33 33 33 32 32 33 33 33 33 34 34 33 32 32 32 32 33 34 33 32 32 31 28 25 21 17 17 17 16 16 16 17 19 20 18 20 22 24 27 28 27 25 23 24 25 21 20 22 24 26 25 24 24 24 22 19 17 17 18 19 21 21 22 23 23 27 31 28 27 28 27 28 29 30 33 34 33 34 32 32 33 32 32 33 33 32
36 36 35 35 34 34 34 34 34 34 34 35 34 33 33 32 32 33 33 34 35 34 33 31 27 23 18 15 17 17 17 17 20 22 21 19 20 22 23 26 30 29 26 25 24 25 26 25 25 25 25 25 25 25 24 23 22 20 19 20 21 22 23 24 27 29 30 31 27 21 25 28 24 26 29 28 30 31 32 33 32 31 31 31 32 33 33 34
39 38 37 37 36 36 36 36 35 35 35 35 34 33 32 32 32 33 33 33 34 34 32 27 21 17 14 14 17 18 18 20 22 22 21 20 22 23 24 27 30 29 26 25 24 25 26 25 24 24 25 26 26 26 24 24 24 23 22 22 22 22 24 27 30 31 29 27 20 15 18 18 14 18 26 26 27 30 31 32 31 30 29 29 31 32 33 33
40 40 39 38 37 37 37 37 36 35 35 34 34 33 31 32 31 31 33 30 30 31 26 19 15 12 11 13 16 18 19 20 21 21 22 23 24 25 27 29 29 28 26 26 26 26 26 25 23 25 27 27 27 27 26 26 26 24 24 25 23 24 27 30 31 26 23 22 22 20 18 16 16 17 23 27 27 29 31 30 28 27 27 30 32 32 31 31
42 41 41 40 39 38 38 38 37 36 36 35 34 33 31 31 28 30 30 19 17 22 19 15 13 12 12 12 14 17 18 18 20 22 24 25 27 28 29 29 27 26 25 26 27 27 27 27 25 25 27 28 27 27 27 26 26 26 28 28 27 28 29 31 30 26 28 30 29 26 21 23 26 24 25 28 28 29 30 28 26 26 27 30 31 30 30 30
43 42 42 41 40 39 38 38 38 38 37 35 34 32 30 29 27 27 19 6 9 16 16 15 15 14 13 13 15 19 20 21 22 23 26 28 29 30 29 26 24 25 26 25 27 28 27 26 24 23 26 28 27 25 25 26 27 29 29 30 30 31 30 31 30 29 30 27 24 23 18 17 20 22 21 21 24 29 28 25 25 26 28 30 30 29 29 30
43 43 42 41 41 40 39 39 38 37 37 35 33 31 30 28 27 22 9 3 11 14 13 15 15 14 15 16 18 20 22 23 22 26 30 30 29 28 25 24 25 28 27 25 28 28 25 23 22 23 25 26 26 24 24 26 28 29 30 31 31 31 32 30 27 28 25 18 21 25 18 12 13 16 18 17 21 27 25 21 23 27 28 29 29 29 30 32
43 42 41 41 41 40 40 39 38 37 36 34 32 30 29 26 23 13 1 6 16 15 14 16 14 14 15 16 18 20 21 22 25 30 32 31 29 24 21 24 28 28 25 26 29 25 21 21 22 24 25 25 25 24 24 25 27 28 29 30 31 29 27 24 21 21 17 10 14 16 13 14 9 9 16 18 20 24 23 23 26 28 30 31 30 30 32 34
43 41 40 41 40 40 40 38 38 37 35 34 31 29 27 23 14 3 4 14 20 16 16 17 14 14 14 14 18 20 22 25 29 31 31 32 27 20 20 25 27 27 26 26 24 19 19 22 23 24 24 23 23 23 22 22 24 25 24 24 24 21 17 14 14 13 7 6 10 10 10 14 12 11 14 17 20 22 24 27 29 31 33 33 32 33 34 35
42 41 40 40 40 40 39 37 37 36 34 33 29 26 23 16 7 11 15 20 14 9 11 11 10 12 14 17 20 23 25 28 31 31 31 28 22 20 23 26 24 23 23 21 19 21 25 25 22 22 21 18 18 19 20 20 19 19 18 14 11 10 8 6 5 5 6 9 11 10 7 11 21 26 24 25 29 29 28 29 31 33 34 34 34 33 33 35
42 41 40 40 39 39 38 37 36 34 33 31 27 24 17 7 8 17 23 22 14 14 15 12 13 18 20 23 23 25 30 31 31 30 28 23 21 24 26 25 22 20 21 23 24 25 23 20 18 18 17 14 14 17 19 18 15 13 13 11 6 2 4 4 3 3 7 10 10 10 11 15 24 27 22 26 33 33 33 32 32 34 34 34 33 30 32 37
42 41 40 39 38 37 37 36 35 34 33 29 25 20 12 11 16 23 25 24 22 25 25 20 21 23 22 24 27 30 32 31 28 27 24 21 24 27 27 26 22 18 21 23 21 17 14 16 18 17 16 15 16 18 18 18 18 16 15 14 12 10 7 5 3 1 4 11 14 14 12 11 16 18 16 20 26 28 30 30 30 32 33 31 29 29 34 41
42 41 40 38 37 37 36 35 35 34 32 29 24 18 18 20 24 25 25 25 25 27 27 24 23 25 27 30 31 30 26 25 25 23 22 24 27 28 28 25 19 15 17 17 14 13 14 18 20 19 19 20 20 20 18 17 17 17 17 17 18 19 17 14 12 10 9 14 16 14 13 17 21 25 24 21 22 25 26 28 30 30 29 28 29 34 40 42
42 42 40 38 37 36 35 35 35 33 32 28 23 24 27 29 28 26 25 24 22 23 24 24 24 26 28 26 24 22 19 22 26 25 25 27 26 25 23 20 17 16 17 17 16 14 15 20 23 22 22 22 22 22 20 18 16 16 16 17 20 20 20 19 16 13 9 10 12 13 18 24 22 21 25 24 23 25 26 29 30 27 25 28 34 40 42 42
43 42 41 39 37 36 35 35 34 34 32 29 28 31 33 35 34 32 31 30 27 26 26 26 26 23 19 17 21 23 21 23 24 23 25 26 25 24 20 17 19 18 18 20 20 17 17 25 30 28 26 26 25 24 23 23 22 22 21 20 18 15 16 16 8 5 3 6 11 13 17 22 17 13 19 22 22 23 26 28 27 26 29 34 40 42 42 43
44 43 42 40 37 36 36 35 35 35 33 30 32 35 36 38 38 35 33 34 33 32 31 29 26 23 21 23 26 26 23 23 23 23 27 27 24 24 20 18 21 23 21 21 21 20 20 24 29 28 25 26 25 23 23 24 25 25 26 24 19 12 11 12 7 1 4 5 7 11 17 21 21 17 16 19 20 21 24 26 27 31 36 40 43 43 43 43
44 44 44 42 37 35 36 37 37 36 34 34 36 38 39 41 40 35 34 35 34 33 32 30 27 25 26 27 26 25 25 26 26 27 27 24 21 23 24 23 26 27 25 22 22 23 22 20 23 24 23 22 22 23 25 25 25 25 27 27 26 21 15 16 14 7 6 6 7 12 14 13 20 25 21 19 21 21 22 28 33 38 41 42 43 43 43 43
45 45 47 44 38 37 37 38 39 38 38 40 42 42 42 43 41 37 36 35 34 33 33 31 28 28 30 29 27 27 28 29 30 30 30 28 26 28 29 29 29 27 23 22 22 24 23 21 23 25 23 22 24 26 27 26 24 25 27 28 29 27 21 18 21 21 16 8 3 7 11 9 11 16 19 20 23 26 29 32 37 39 40 42 43 42 43 43
44 47 50 45 39 39 39 40 42 42 43 45 45 45 45 43 41 39 38 37 36 37 36 34 33 33 33 32 31 31 30 32 34 33 33 33 30 29 29 31 31 27 24 25 25 25 24 24 28 30 28 28 30 30 28 26 25 25 27 28 29 29 24 14 13 23 27 18 11 9 12 15 15 14 19 27 30 30 31 34 37 37 39 42 43 42 42 43
46 50 50 44 41 41 41 43 45 44 45 48 47 46 45 43 43 41 40 39 39 39 38 38 39 38 39 38 36 35 33 36 38 36 35 36 32 31 34 36 35 31 29 30 28 27 26 26 30 33 32 32 33 31 28 26 25 25 26 28 26 26 29 21 12 18 23 23 24 19 14 21 28 25 26 30 27 26 31 35 35 35 38 42 43 43 43 43
48 50 49 46 44 43 42 45 46 46 49 50 48 46 45 45 45 43 41 40 40 39 39 41 43 42 43 41 37 35 34 37 42 41 38 36 35 34 35 35 34 32 32 31 27 25 23 23 27 30 32 33 31 31 30 28 26 27 30 31 29 29 32 29 26 25 21 21 23 14 9 20 26 26 26 25 24 28 33 34 34 36 40 43 43 44 43 44
48 49 49 48 47 46 48 50 50 50 52 50 48 48 48 47 47 45 42 42 41 40 40 44 44 43 43 40 37 36 34 35 40 40 35 32 33 36 36 35 34 34 34 32 29 26 23 22 23 19 18 19 19 18 22 27 29 31 32 31 32 34 30 29 33 28 22 30 29 12 12 27 26 21 24 26 28 34 34 33 37 41 43 44 45 44 44 45
47 49 50 50 49 49 52 53 51 51 51 49 49 51 51 50 50 48 46 44 42 40 41 45 45 42 41 38 37 37 36 37 39 40 39 36 37 40 39 36 36 37 36 35 34 32 29 28 27 19 12 12 12 11 16 24 26 29 33 31 31 33 31 32 33 24 21 34 36 22 25 38 34 24 27 31 34 38 36 37 42 43 43 45 45 44 44 45
49 51 52 52 50 51 55 53 50 51 50 47 49 52 51 50 51 50 46 44 42 41 42 45 44 41 38 37 37 39 41 41 40 42 44 43 42 42 40 39 39 39 37 35 35 35 34 35 36 33 31 32 30 26 27 28 24 25 28 27 27 29 31 33 31 31 32 31 34 37 38 42 44 38 37 38 38 38 38 39 43 44 43 44 43 43 44 45
52 54 56 54 48 47 52 52 51 53 53 50 51 51 49 48 48 44 42 42 41 41 42 43 42 39 38 38 38 42 45 42 41 44 45 45 46 45 43 44 44 43 40 37 37 36 36 40 41 40 42 45 41 36 34 33 31 30 26 23 25 26 29 34 37 42 39 25 29 44 42 39 45 43 39 40 38 37 39 41 43 43 42 42 42 43 44 44
56 57 58 56 50 48 51 52 50 51 51 50 51 52 51 50 46 41 38 38 38 38 39 41 43 40 39 41 40 44 46 41 40 44 44 43 45 45 45 46 46 46 43 39 41 39 37 41 44 39 40 44 40 36 38 37 36 36 30 26 30 32 33 38 43 46 42 34 40 49 44 43 47 43 43 44 41 40 43 43 42 41 40 41 41 43 44 44
59 58 56 56 55 55 56 54 49 47 50 49 49 53 52 50 48 45 39 37 39 41 40 41 46 45 43 44 43 45 47 42 40 46 46 42 42 42 44 46 45 45 43 41 43 40 35 40 42 37 38 43 39 36 38 39 40 42 39 35 36 38 39 41 44 44 43 47 53 52 49 54 53 48 49 45 39 41 41 39 40 39 39 39 40 43 44 43
60 59 58 56 57 57 55 53 51 52 54 53 53 55 52 50 53 50 42 42 47 47 43 45 52 52 47 46 46 49 52 48 46 51 49 45 44 44 45 48 46 44 43 43 42 38 34 37 37 33 34 39 39 35 35 37 39 42 44 42 40 42 44 45 46 45 44 49 53 50 53 59 52 46 45 37 33 36 35 36 39 38 37 38 40 42 43 43
58 58 57 54 57 59 54 53 53 52 54 57 59 59 56 56 60 54 48 52 54 51 50 53 56 52 46 47 50 53 54 50 49 51 49 48 50 50 51 52 50 48 48 46 42 39 36 36 37 32 29 33 35 30 29 32 34 40 50 50 45 46 49 49 48 47 46 49 50 48 53 52 41 36 36 32 30 32 33 36 38 36 35 37 39 40 40 42
56 55 56 55 57 61 57 52 50 52 60 65 61 58 59 61 60 54 51 55 56 54 55 56 52 48 47 50 53 54 52 50 48 48 47 49 53 55 55 56 55 54 53 48 44 41 38 37 38 32 25 27 28 22 21 21 19 31 48 48 40 40 43 46 47 44 42 45 48 49 49 42 33 30 32 31 30 32 34 36 36 34 35 36 36 38 39 42
Wind_Direction
264 275 292 311 324 329 339 346 352 356 358 360 358 356 355 352 353 358 3 6 7 4 0 358 357 355 355 359 5 12 26 40 39 36 37 36 34 27 21 16 12 10 10 9 7 3 2 9 12 8 2 354 357 358 358 359 358 10 43 122 333 220 195 218 262 281 279 275 271 269 278 284 284 299 339 56 93 158 218 222 234 267 279 285 293 297 298 298
263 272 282 290 300 310 318 326 333 337 342 346 348 347 347 346 346 351 357 2 4 2 360 359 357 356 356 1 7 14 27 41 40 38 35 31 27 18 14 12 9 10 7 6 1 356 357 360 2 355 349 351 356 355 349 352 359 357 27 70 264 217 214 252 276 283 276 272 269 269 275 280 282 293 313 151 164 205 236 248 254 270 282 288 292 294 295 296
263 271 277 283 290 298 305 313 320 325 331 337 340 340 341 342 341 345 351 357 360 0 1 1 360 358 360 4 10 15 28 43 39 36 33 27 21 15 14 12 11 11 7 5 359 355 355 350 350 345 344 345 350 355 348 353 358 347 30 141 233 226 241 264 274 278 270 266 267 273 276 278 281 282 278 217 212 230 246 258 262 267 275 282 290 295 298 299
262 270 276 281 285 291 297 303 310 315 322 330 335 335 336 338 338 340 345 351 356 359 3 4 3 2 3 8 12 16 30 44 35 31 27 21 17 13 12 10 8 6 3 2 1 359 353 349 344 340 343 345 349 349 348 356 344 343 143 213 236 238 254 268 275 267 261 261 266 276 279 283 287 285 260 213 234 256 261 268 270 274 279 285 291 295 299 300
264 270 274 279 282 287 292 296 302 308 314 322 329 331 332 334 334 336 339 346 352 357 4 7 8 8 9 14 16 17 29 42 32 26 18 13 10 7 5 4 2 360 359 357 358 358 353 354 349 345 346 347 354 337 334 342 331 330 230 245 256 253 271 287 284 254 251 255 261 273 280 290 289 282 260 225 248 272 273 277 280 287 292 294 296 298 300 301
267 271 275 278 282 285 288 292 297 302 307 315 323 326 327 330 331 332 334 339 348 355 3 7 11 14 16 20 22 20 28 38 31 21 6 4 0 359 359 358 358 356 354 351 351 353 353 354 349 351 347 338 345 325 325 327 323 314 239 269 294 280 287 295 276 247 247 251 259 270 279 295 290 278 271 250 258 273 274 279 286 295 299 298 299 300 303 306
271 274 276 279 283 286 288 289 292 296 302 308 315 321 323 326 328 330 331 333 343 353 0 6 11 18 21 25 28 23 27 30 22 10 355 352 347 350 353 352 354 353 351 350 350 349 348 348 345 346 342 336 334 324 327 322 322 305 242 286 309 299 296 292 268 245 240 245 258 268 272 286 288 276 274 271 275 278 277 282 288 294 299 301 302 304 307 311
275 276 278 281 284 288 290 291 292 293 298 302 309 316 320 322 325 327 328 329 337 348 357 3 8 18 23 27 28 24 26 24 8 357 348 341 334 339 346 347 347 349 350 350 348 347 343 343 344 342 338 340 334 321 328 323 318 316 293 304 313 309 302 289 264 241 237 244 256 268 276 281 282 279 278 280 285 283 282 285 287 292 300 304 305 306 309 311
277 277 279 281 284 288 292 293 293 294 297 300 304 310 316 318 321 324 325 325 331 342 352 358 2 12 20 25 24 21 24 23 6 355 345 333 327 329 337 341 340 344 349 348 347 345 342 342 343 340 336 334 329 325 329 326 320 322 315 308 307 307 304 293 262 238 234 242 258 272 286 284 281 283 276 276 283 284 286 288 290 296 302 304 305 306 307 307
279 279 279 280 283 286 290 293 294 296 298 300 302 306 311 314 317 319 321 321 326 335 345 351 354 2 13 22 20 14 19 21 7 355 345 332 324 323 330 336 337 339 344 346 346 344 342 342 340 338 336 329 325 327 327 326 323 320 315 307 304 303 304 296 269 243 235 245 269 276 281 279 283 281 269 275 287 288 289 291 294 300 304 305 306 306 306 303
283 281 280 280 281 284 287 291 293 296 299 302 303 304 308 311 313 315 316 316 320 328 337 342 343 346 2 15 14 10 15 15 4 352 343 330 323 322 327 333 335 336 338 342 344 343 343 342 341 338 334 327 325 327 324 321 319 316 313 307 302 300 303 300 283 254 244 257 281 286 279 277 281 268 263 284 296 292 293 294 296 300 304 307 307 306 304 303
286 284 282 281 281 283 286 288 290 293 298 302 303 305 308 311 311 312 312 311 314 321 328 335 335 330 347 2 3 6 10 7 358 350 339 329 323 322 324 329 334 334 335 339 341 342 342 341 341 339 333 326 325 326 321 319 318 315 313 308 301 297 299 302 295 277 270 279 291 301 293 287 286 264 262 283 289 288 292 293 295 299 302 306 307 305 302 303
288 286 285 283 282 283 285 287 288 290 294 299 303 304 307 310 311 311 310 309 310 315 321 328 329 317 325 345 351 357 0 358 352 344 336 327 321 320 322 326 330 333 333 335 337 340 341 340 339 336 334 328 324 324 319 318 317 313 315 309 298 294 296 299 294 291 296 294 298 309 304 303 288 257 256 275 282 288 292 290 291 295 299 305 306 303 302 306
287 287 286 285 285 285 286 288 288 289 291 295 300 303 306 309 311 310 310 309 309 313 315 321 325 312 308 327 333 339 349 353 349 338 331 326 318 316 318 322 326 329 331 331 334 336 336 337 336 333 332 329 324 322 319 320 319 313 313 307 292 287 295 301 297 300 304 298 301 308 305 305 267 246 257 279 286 292 294 293 295 297 301 306 306 302 306 309
286 287 287 287 288 288 288 289 290 291 291 293 297 301 304 306 309 311 312 311 310 313 313 314 322 313 302 312 315 321 337 344 345 339 331 324 317 314 315 319 322 325 327 328 330 332 332 333 334 333 331 329 324 323 327 329 317 301 296 298 277 269 294 305 299 300 303 296 298 301 295 287 265 261 271 281 287 293 296 298 301 302 303 307 305 301 306 309
285 286 287 288 289 289 290 290 291 293 293 294 296 299 303 305 309 312 313 313 310 311 311 310 317 313 302 304 306 312 326 333 340 342 333 321 317 317 316 319 320 321 324 323 327 329 327 329 333 333 332 330 329 331 338 333 312 284 260 267 271 275 293 298 291 295 297 291 293 295 292 291 284 279 277 282 288 292 296 299 301 302 302 305 300 295 303 305
285 285 286 287 289 290 291 292 293 294 295 296 297 298 300 303 307 310 314 317 315 313 311 309 311 309 302 300 300 306 315 324 334 337 332 323 320 320 318 318 317 320 323 322 325 327 325 328 331 331 332 336 332 325 333 331 311 272 252 275 286 289 291 287 290 297 295 290 288 286 289 294 290 284 281 283 285 288 293 296 298 298 298 301 293 289 300 301
283 284 285 286 288 290 292 293 294 295 296 297 299 300 300 303 306 309 313 316 315 311 310 310 308 303 300 297 296 301 305 314 325 327 328 325 322 321 318 318 318 319 322 321 324 329 327 328 329 327 332 338 292 298 318 320 300 286 283 290 294 293 288 288 297 296 289 287 286 285 290 291 282 279 281 282 284 288 291 293 296 293 294 298 288 286 298 300
282 283 284 286 288 290 292 294 295 296 297 297 299 300 301 302 303 303 304 309 312 312 312 312 308 300 300 298 293 292 292 301 314 318 323 323 319 319 317 317 316 315 319 322 326 328 324 325 328 326 320 297 284 299 309 305 298 295 294 295 295 295 294 297 301 291 279 279 280 285 290 283 271 275 282 285 287 289 289 292 294 291 294 296 286 287 297 297
282 283 284 286 288 290 292 293 295 297 298 298 299 299 300 300 299 298 298 303 308 311 310 311 309 301 298 297 288 282 281 289 305 313 319 319 313 313 315 316 314 317 322 324 324 323 320 323 327 319 295 290 300 307 307 304 304 299 298 299 298 297 297 299 295 280 277 278 279 284 287 285 279 275 280 286 287 286 288 291 291 292 296 295 286 290 297 293
282 284 285 287 288 290 292 293 295 297 299 300 301 303 304 305 306 305 303 304 305 308 308 309 309 300 295 291 278 273 273 280 300 311 315 317 312 309 313 316 314 316 320 319 318 318 320 321 319 306 285 294 306 309 307 307 305 300 302 304 301 295 289 286 278 274 281 283 283 289 292 290 283 275 279 285 284 283 287 291 292 294 296 292 288 290 293 289
283 284 286 287 289 290 292 293 295 297 299 300 302 304 306 306 307 308 307 306 306 307 309 310 310 302 294 281 264 263 266 275 296 307 310 314 313 309 312 316 313 314 318 318 316 315 316 314 308 298 293 299 307 309 309 309 305 304 307 305 298 289 279 276 276 280 285 285 289 297 291 283 281 281 281 280 278 281 287 289 289 291 289 286 284 286 287 283
283 284 286 287 289 290 291 293 294 297 298 299 301 303 304 305 305 306 307 308 306 306 308 310 310 303 294 273 254 256 263 275 293 303 305 309 312 312 313 315 314 316 318 316 312 308 309 308 302 300 299 302 306 308 311 311 307 306 304 295 285 280 277 280 287 291 291 291 297 300 286 279 285 283 271 267 271 277 283 282 281 282 281 279 278 281 282 281
282 283 285 286 288 289 291 292 294 296 297 299 300 302 303 305 305 305 307 308 307 306 307 309 308 300 288 266 251 255 266 278 291 299 301 304 310 311 311 314 315 316 314 311 310 305 303 306 305 304 304 305 307 308 310 307 303 300 295 288 282 278 277 283 294 300 300 300 301 298 286 284 288 278 264 262 272 277 276 273 273 274 273 272 274 277 279 283
281 282 283 285 286 288 289 291 293 295 297 298 300 302 303 305 306 306 310 312 310 308 307 307 305 295 280 257 248 258 271 279 288 294 295 301 309 307 308 313 313 312 309 307 310 305 303 307 307 306 305 305 306 306 306 302 298 298 294 290 286 283 282 289 300 304 303 302 296 295 297 296 291 270 260 265 274 275 271 268 269 272 271 271 274 276 281 288
280 281 283 284 285 287 288 289 292 293 295 297 298 301 302 305 306 308 313 316 311 308 308 306 298 286 276 253 244 260 273 277 284 288 289 297 306 306 308 313 310 308 307 307 309 308 309 311 307 304 304 304 303 302 302 301 299 297 294 293 290 288 290 296 302 300 295 293 289 289 291 288 283 268 264 274 277 270 264 263 265 269 273 275 278 282 288 294
279 280 281 282 284 285 286 288 290 292 294 295 297 299 302 305 307 313 319 319 305 304 308 302 288 277 275 256 249 265 273 279 285 285 288 296 304 306 309 311 308 304 305 307 306 306 311 311 307 305 302 299 298 298 299 299 297 294 294 294 293 292 295 298 299 293 290 291 290 288 281 272 272 270 269 273 271 264 258 255 261 267 272 277 280 286 293 297
277 279 280 281 282 283 285 286 288 290 292 294 296 298 301 303 307 316 324 318 291 300 302 296 286 276 270 258 262 272 275 282 285 287 293 298 304 309 310 311 308 303 305 302 297 302 308 306 307 307 300 297 297 298 298 297 294 292 293 293 293 294 295 296 295 292 292 291 284 282 277 266 267 267 267 261 255 256 252 250 260 266 271 275 278 287 296 300
276 277 278 280 281 282 283 285 286 288 290 293 294 297 300 302 308 318 325 273 288 294 292 290 281 271 265 261 267 273 276 281 282 287 294 299 305 310 309 310 308 305 305 299 295 301 302 299 307 307 300 300 300 298 296 294 293 292 293 292 292 293 292 294 295 290 289 278 271 279 272 251 262 259 248 242 247 252 246 240 251 260 267 272 278 290 299 302
275 276 277 279 280 281 282 284 286 287 289 290 292 295 297 301 309 321 308 268 288 288 283 282 272 263 264 264 268 273 276 280 285 291 295 299 306 307 304 309 309 305 303 299 298 300 295 296 304 303 302 304 301 299 298 295 294 292 291 292 292 293 293 294 288 279 279 263 261 274 251 231 256 259 235 235 246 249 242 237 249 261 268 274 283 293 299 300
274 275 276 278 279 280 281 283 284 285 286 287 290 292 295 301 305 279 229 284 291 285 275 271 264 260 265 270 275 280 281 285 293 296 296 299 303 301 303 311 312 307 307 306 304 298 293 298 303 302 303 301 296 298 299 295 291 288 289 294 296 301 303 290 269 253 244 256 257 253 237 229 233 239 237 244 250 244 238 242 253 264 270 276 284 291 294 296
273 274 275 276 277 279 280 281 282 283 283 284 287 287 291 298 267 229 263 287 289 276 266 264 262 266 275 279 279 285 290 293 296 295 294 296 296 297 306 312 311 306 303 305 302 294 294 299 302 301 298 292 291 297 301 297 288 281 284 292 298 313 316 277 242 222 227 258 255 241 253 251 250 256 259 262 262 255 247 247 254 262 268 275 282 287 291 294
272 273 274 274 275 277 278 279 279 279 279 280 280 282 282 273 238 250 269 278 273 271 271 268 274 280 284 282 282 290 295 295 293 290 291 291 287 295 305 308 307 298 290 294 296 295 299 303 304 301 296 289 289 296 300 297 287 273 270 270 256 278 317 278 239 240 250 251 240 253 290 284 269 272 270 262 261 258 254 254 257 263 269 276 281 285 289 296
271 271 271 272 273 273 274 276 276 276 276 274 274 271 247 226 252 265 269 269 267 270 271 272 280 283 281 279 285 294 295 292 288 285 288 288 288 298 305 306 307 295 285 290 293 293 296 301 301 298 292 289 290 295 296 290 283 271 261 256 239 222 229 258 248 204 274 276 265 269 283 273 274 286 284 270 261 255 255 256 259 266 272 275 279 286 295 303
269 269 269 269 269 270 271 271 272 272 269 267 266 247 221 234 259 267 269 268 262 261 265 270 276 280 282 283 288 291 286 282 283 282 282 284 290 298 303 304 305 295 281 278 285 291 288 290 296 294 287 285 290 293 289 283 279 269 256 246 244 241 238 247 261 270 291 299 281 260 251 258 274 283 279 271 259 252 253 257 263 268 270 273 285 296 305 311
267 267 266 266 266 268 268 267 268 266 263 262 252 230 231 249 264 268 270 269 260 257 263 271 277 281 285 289 288 286 279 276 279 280 282 288 293 297 298 299 301 296 283 274 278 287 286 288 294 290 283 282 286 288 282 275 273 266 253 244 248 252 246 246 266 285 292 296 277 253 259 268 271 270 266 258 249 249 254 261 267 271 275 287 300 306 311 316
266 265 265 264 264 265 265 264 264 261 258 254 242 239 248 260 267 269 267 265 263 263 266 274 280 278 278 284 284 285 282 276 276 277 282 289 295 296 294 293 298 297 285 278 277 277 279 287 290 285 280 280 280 280 276 271 268 261 253 253 254 253 247 243 263 318 291 273 268 246 251 264 260 249 254 252 245 247 255 263 273 281 291 302 306 308 314 318
265 264 264 263 263 263 263 262 260 256 254 247 242 248 256 261 268 268 263 264 266 266 266 269 272 271 271 276 279 281 276 271 273 276 280 286 289 290 290 293 299 295 285 279 276 274 279 286 288 283 277 278 275 270 270 268 266 257 252 255 252 242 237 227 216 268 254 257 277 259 253 259 255 248 251 253 244 240 252 270 285 294 300 305 305 308 315 318
263 263 263 263 262 261 261 260 257 252 247 242 242 250 258 264 270 265 259 265 268 266 265 266 268 271 273 274 273 272 271 271 274 275 278 281 281 283 288 293 295 292 286 279 272 276 279 278 284 283 274 272 266 260 264 267 265 255 247 247 245 242 241 234 227 225 235 251 276 280 277 264 254 257 257 252 245 245 263 284 295 299 302 303 305 311 316 317
261 262 263 263 261 260 259 257 253 247 244 244 248 255 262 266 268 265 262 265 265 263 265 267 271 273 273 273 270 268 272 273 273 272 272 272 274 280 288 292 291 288 286 278 272 276 274 263 269 276 269 263 262 264 271 274 269 255 244 240 241 241 239 242 247 241 237 249 270 281 281 264 248 252 248 251 264 272 281 293 299 300 301 302 307 313 315 316
259 259 261 263 261 259 257 254 251 247 247 249 253 258 262 263 264 264 264 264 262 263 266 268 270 271 272 271 269 269 272 271 271 270 270 270 271 276 287 293 291 288 285 278 273 275 272 261 261 266 264 262 268 275 277 274 266 258 253 248 247 245 235 229 252 248 241 240 235 245 271 270 260 249 252 268 279 281 286 298 300 298 300 304 308 313 315 317
255 257 261 263 260 258 256 254 254 251 250 253 257 260 262 263 263 262 262 262 262 263 266 269 271 272 274 274 272 271 269 270 271 268 267 272 273 276 286 289 287 286 285 281 278 276 273 264 259 261 263 267 273 276 274 268 259 254 255 251 247 242 232 224 235 248 245 243 241 243 262 271 269 266 268 274 275 279 294 302 300 297 300 304 309 313 315 317
255 258 261 262 259 257 255 253 253 251 252 256 259 260 260 262 263 262 260 258 259 261 264 270 274 276 278 278 274 271 269 270 272 268 267 273 275 278 282 282 281 284 283 279 277 274 267 257 256 262 268 270 270 269 265 260 253 248 249 247 240 236 235 236 244 250 253 249 241 237 255 265 268 271 272 272 275 288 298 297 294 296 300 304 310 313 315 317
256 258 259 258 256 254 252 252 253 254 257 259 258 258 260 261 260 257 255 253 255 260 266 272 276 277 279 278 272 272 270 267 269 272 273 273 277 282 281 277 279 281 279 276 276 275 267 254 252 264 281 279 272 265 256 251 248 247 246 243 239 240 239 241 245 247 253 252 244 227 249 258 260 264 268 275 286 293 294 290 290 295 298 304 309 311 314 317
253 254 255 254 253 252 252 254 255 256 259 258 258 260 261 259 257 255 254 254 255 259 265 272 277 277 276 273 270 272 269 261 263 271 274 274 278 283 281 278 279 279 278 277 276 274 269 257 250 249 259 270 269 269 267 263 257 249 247 243 238 239 239 242 245 240 243 252 247 233 245 258 261 263 268 277 286 287 287 286 288 292 297 303 306 310 315 317
250 250 251 251 250 251 253 254 253 253 255 255 256 260 260 258 259 258 256 254 254 258 265 271 275 273 269 265 265 268 267 261 259 264 271 275 278 280 278 278 279 278 277 276 272 271 266 261 258 253 253 260 265 271 275 274 266 254 249 244 239 239 242 243 241 234 238 251 252 246 250 260 265 267 269 274 280 281 281 283 286 290 297 302 306 312 316 316
247 248 250 249 248 250 251 251 250 252 255 253 253 256 257 257 259 258 255 254 257 262 266 268 268 263 260 264 265 268 269 264 259 263 269 273 274 274 275 276 276 276 276 272 269 267 264 266 268 262 260 266 267 266 267 266 264 263 257 248 246 249 247 241 238 240 245 250 257 258 258 261 267 271 274 276 280 280 280 283 287 291 297 302 308 312 313 314
246 248 251 251 250 251 252 253 255 256 257 255 255 258 256 253 252 250 253 259 262 263 261 262 263 259 262 271 269 267 270 265 260 268 271 268 269 271 273 275 275 275 273 269 267 267 264 269 274 267 266 271 268 260 259 258 261 264 259 252 253 255 251 245 244 249 250 246 255 264 266 265 268 274 277 279 282 281 281 284 287 292 299 304 309 311 312 316
246 247 249 250 251 253 255 257 258 258 258 256 256 257 254 250 249 247 248 252 257 261 256 256 265 268 269 274 268 263 267 265 264 274 275 268 268 271 273 276 275 273 271 268 267 268 264 268 273 268 267 272 267 259 257 254 255 260 258 254 255 255 255 254 254 256 254 252 258 266 268 269 272 275 277 282 285 281 281 283 286 294 301 304 308 310 313 319
246 247 249 249 251 254 254 255 255 254 256 254 252 254 253 252 255 252 246 247 255 258 255 258 272 275 273 274 268 263 270 272 272 278 279 272 269 272 275 277 275 272 271 267 266 267 262 263 269 267 267 270 268 262 258 253 253 258 259 255 253 255 256 255 255 255 254 256 262 264 264 269 277 280 280 283 283 279 278 281 287 297 301 304 310 313 316 320
248 250 252 250 252 255 252 251 252 252 254 253 251 253 254 255 260 259 253 256 259 258 260 268 277 277 272 270 267 267 275 279 276 277 277 270 269 272 276 277 275 271 268 266 267 267 260 257 262 261 260 267 270 266 260 258 259 262 261 257 253 253 256 256 254 253 253 257 263 261 259 269 286 291 284 280 277 274 275 281 291 299 303 307 312 314 316 320
247 247 249 249 251 254 251 247 245 247 253 255 254 256 259 262 265 261 254 258 262 263 269 274 274 272 270 268 268 272 278 278 274 273 272 269 269 272 274 273 271 267 265 266 267 265 260 258 259 254 249 260 267 263 261 266 269 265 265 265 260 257 258 258 256 256 256 256 258 256 260 275 290 288 279 275 272 271 276 286 296 301 305 310 311 313 318 322
Height
3197 3197 3197 3196 3196 3195 3194 3194 3193 3193 3192 3192 3191 3190 3189 3188 3186 3185 3184 3182 3181 3179 3177 3175 3173 3170 3168 3166 3164 3163 3162 3162 3162 3161 3161 3161 3160 3160 3160 3160 3159 3158 3158 3157 3157 3156 3155 3154 3154 3154 3154 3154 3153 3153 3153 3153 3152 3152 3152 3151 3151 3151 3150 3151 3151 3150 3149 3147 3146 3144 3142 3142 3141 3140 3140 3139 3139 3139 3136 3135 3132 3128 3127 3129 3130 3129 3126 3124
3197 3196 3196 3196 3196 3195 3194 3193 3193 3192 3192 3192 3191 3190 3189 3188 3186 3185 3184 3182 3181 3179 3178 3175 3173 3170 3168 3166 3165 3164 3163 3162 3162 3162 3161 3161 3160 3160 3159 3159 3159 3159 3158 3158 3157 3156 3155 3154 3154 3154 3153 3153 3153 3152 3152 3152 3152 3151 3151 3151 3150 3150 3150 3150 3150 3149 3147 3145 3143 3142 3141 3140 3139 3139 3139 3138 3137 3136 3133 3132 3131 3129 3128 3127 3128 3127 3125 3123
3196 3196 3196 3196 3196 3195 3194 3193 3193 3192 3192 3191 3190 3190 3189 3188 3186 3185 3184 3183 3181 3180 3178 3175 3173 3171 3168 3167 3165 3164 3163 3162 3162 3162 3161 3161 3160 3160 3159 3159 3158 3158 3158 3158 3157 3156 3155 3154 3154 3153 3152 3152 3152 3152 3151 3151 3151 3150 3150 3149 3149 3149 3149 3149 3148 3147 3145 3143 3141 3140 3140 3138 3137 3137 3137 3135 3134 3133 3131 3131 3132 3130 3128 3127 3126 3125 3122 3121
3196 3196 3196 3196 3195 3194 3194 3193 3192 3192 3191 3191 3190 3189 3188 3187 3186 3185 3184 3183 3181 3180 3178 3176 3174 3171 3169 3167 3165 3164 3163 3162 3162 3162 3161 3161 3160 3160 3159 3158 3158 3157 3157 3156 3155 3155 3155 3154 3153 3153 3152 3151 3150 3150 3150 3150 3149 3149 3148 3147 3147 3147 3147 3147 3146 3145 3143 3141 3140 3139 3137 3136 3135 3135 3135 3133 3131 3131 3130 3130 3131 3130 3128 3126 3125 3123 3121 3119
3196 3196 3195 3195 3195 3194 3193 3192 3192 3191 3191 3190 3190 3189 3188 3187 3186 3184 3184 3183 3182 3180 3178 3176 3174 3172 3169 3167 3165 3164 3163 3162 3162 3161 3161 3161 3160 3159 3159 3158 3157 3156 3156 3155 3154 3154 3153 3153 3152 3151 3151 3150 3149 3149 3148 3148 3148 3147 3146 3145 3145 3145 3144 3144 3144 3143 3141 3140 3139 3137 3136 3134 3133 3132 3132 3131 3130 3129 3128 3129 3129 3127 3125 3124 3122 3121 3119 3118
3195 3195 3195 3194 3194 3193 3193 3192 3191 3191 3190 3190 3189 3188 3187 3187 3185 3184 3183 3182 3181 3180 3178 3176 3174 3172 3170 3168 3166 3164 3163 3162 3162 3161 3161 3160 3160 3159 3159 3158 3157 3156 3155 3154 3153 3152 3151 3151 3150 3150 3149 3149 3149 3148 3147 3147 3146 3145 3144 3143 3144 3143 3142 3142 3142 3141 3140 3139 3137 3136 3134 3133 3131 3129 3129 3130 3129 3128 3127 3127 3126 3124 3123 3121 3119 3118 3116 3115
3195 3194 3194 3194 3193 3193 3192 3191 3191 3190 3190 3189 3188 3188 3187 3186 3185 3184 3183 3182 3181 3180 3178 3176 3175 3173 3171 3169 3167 3165 3164 3162 3162 3161 3161 3160 3160 3159 3158 3157 3156 3155 3154 3153 3152 3151 3150 3150 3149 3149 3148 3148 3147 3147 3146 3145 3144 3143 3142 3142 3142 3141 3141 3140 3140 3139 3138 3137 3136 3134 3133 3131 3129 3126 3125 3127 3128 3127 3125 3124 3123 3121 3120 3117 3116 3114 3113 3112
3194 3194 3193 3193 3192 3192 3191 3191 3190 3190 3189 3188 3188 3187 3186 3185 3185 3183 3182 3181 3180 3179 3178 3176 3175 3173 3171 3169 3168 3166 3164 3163 3162 3161 3161 3160 3160 3159 3158 3157 3156 3155 3153 3152 3151 3150 3149 3149 3148 3147 3147 3147 3146 3146 3145 3144 3143 3142 3141 3140 3139 3139 3139 3139 3138 3138 3137 3135 3134 3133 3131 3130 3128 3124 3122 3124 3125 3124 3123 3122 3121 3119 3117 3115 3113 3111 3110 3110
3193 3193 3193 3192 3192 3191 3190 3190 3189 3189 3188 3187 3187 3186 3185 3184 3184 3183 3181 3180 3180 3179 3178 3176 3174 3173 3171 3170 3168 3166 3165 3163 3162 3161 3160 3160 3159 3159 3158 3156 3155 3154 3153 3151 3150 3149 3148 3147 3147 3146 3146 3145 3145 3144 3144 3142 3141 3141 3140 3138 3137 3137 3137 3137 3136 3136 3135 3134 3133 3132 3130 3127 3126 3123 3120 3121 3122 3121 3121 3120 3118 3116 3114 3112 3111 3110 3108 3107
3192 3192 3192 3191 3191 3190 3190 3189 3188 3188 3187 3187 3186 3185 3184 3183 3183 3182 3181 3180 3179 3178 3177 3176 3174 3173 3171 3170 3168 3166 3165 3164 3162 3161 3160 3159 3159 3158 3157 3156 3154 3153 3152 3151 3150 3149 3148 3146 3146 3145 3145 3144 3144 3143 3142 3142 3141 3140 3139 3137 3136 3135 3135 3134 3134 3134 3133 3133 3132 3131 3129 3125 3123 3121 3117 3117 3120 3119 3119 3118 3115 3114 3112 3110 3109 3108 3106 3105
3191 3191 3191 3190 3190 3189 3189 3188 3187 3187 3186 3185 3185 3184 3183 3182 3182 3181 3180 3179 3178 3177 3176 3175 3173 3172 3171 3169 3168 3166 3165 3164 3162 3161 3160 3159 3158 3157 3156 3155 3153 3152 3151 3150 3149 3148 3147 3146 3145 3144 3143 3143 3142 3141 3141 3141 3140 3138 3137 3135 3134 3133 3132 3132 3131 3132 3131 3131 3130 3130 3129 3124 3121 3119 3113 3115 3117 3115 3115 3114 3112 3111 3109 3107 3106 3105 3104 3102
3189 3189 3189 3189 3189 3188 3188 3187 3186 3185 3185 3184 3184 3183 3182 3181 3180 3180 3179 3178 3177 3176 3175 3174 3173 3171 3170 3169 3167 3166 3165 3164 3162 3161 3160 3158 3157 3156 3155 3154 3152 3151 3150 3149 3148 3147 3146 3145 3144 3143 3143 3142 3141 3140 3139 3139 3138 3137 3136 3133 3131 3130 3130 3130 3129 3129 3129 3129 3128 3127 3127 3123 3119 3115 3112 3114 3115 3113 3113 3112 3110 3109 3107 3105 3103 3102 3101 3100
3188 3188 3188 3187 3187 3187 3186 3186 3185 3184 3184 3183 3183 3182 3181 3180 3179 3178 3177 3176 3176 3175 3174 3173 3172 3170 3169 3168 3167 3166 3165 3163 3162 3161 3159 3158 3157 3156 3154 3153 3151 3150 3149 3148 3146 3146 3145 3144 3143 3142 3142 3141 3140 3140 3139 3138 3137 3136 3135 3132 3130 3128 3127 3127 3127 3127 3127 3126 3125 3125 3124 3123 3118 3112 3110 3112 3112 3112 3112 3110 3109 3108 3105 3104 3102 3100 3099 3097
3186 3186 3186 3186 3186 3185 3185 3184 3184 3183 3182 3182 3181 3180 3179 3179 3178 3176 3176 3175 3174 3174 3173 3172 3171 3169 3168 3167 3166 3165 3164 3163 3161 3160 3159 3157 3156 3155 3154 3152 3151 3149 3148 3147 3145 3144 3143 3143 3142 3141 3141 3140 3139 3138 3137 3137 3136 3135 3134 3132 3130 3128 3126 3126 3126 3125 3124 3123 3123 3123 3122 3122 3118 3110 3109 3110 3109 3109 3109 3107 3106 3104 3102 3100 3099 3098 3096 3094
3184 3184 3184 3184 3184 3183 3183 3183 3182 3182 3181 3180 3180 3179 3178 3177 3176 3175 3174 3173 3173 3172 3172 3171 3170 3168 3167 3166 3165 3164 3163 3161 3160 3159 3158 3157 3155 3154 3152 3151 3150 3149 3147 3145 3144 3143 3142 3142 3141 3139 3139 3138 3137 3137 3136 3135 3134 3133 3132 3131 3130 3129 3128 3125 3124 3124 3124 3121 3121 3122 3120 3120 3116 3110 3110 3109 3107 3107 3105 3103 3101 3099 3097 3096 3095 3095 3093 3092
3182 3182 3182 3182 3182 3181 3181 3181 3181 3180 3179 3179 3179 3178 3177 3176 3175 3174 3173 3172 3171 3170 3170 3170 3168 3167 3165 3164 3163 3162 3161 3160 3159 3158 3157 3156 3155 3153 3151 3150 3149 3147 3146 3144 3143 3142 3141 3140 3139 3138 3137 3136 3136 3135 3135 3134 3133 3132 3132 3131 3130 3129 3128 3126 3123 3122 3122 3120 3119 3119 3118 3118 3114 3108 3108 3109 3107 3105 3102 3100 3098 3095 3093 3093 3092 3091 3091 3090
3180 3180 3180 3180 3180 3179 3179 3179 3179 3178 3178 3177 3177 3176 3175 3174 3173 3172 3171 3170 3169 3168 3168 3167 3167 3165 3164 3163 3162 3161 3159 3158 3157 3157 3156 3155 3153 3152 3150 3149 3147 3146 3145 3143 3142 3141 3140 3139 3138 3137 3136 3135 3135 3135 3134 3134 3134 3133 3132 3130 3129 3128 3126 3125 3123 3120 3119 3118 3118 3117 3116 3116 3112 3105 3105 3106 3104 3102 3099 3097 3095 3092 3090 3090 3089 3088 3088 3086
3178 3178 3178 3178 3178 3177 3177 3176 3176 3176 3176 3175 3174 3174 3173 3173 3172 3171 3170 3169 3168 3167 3166 3166 3165 3163 3162 3161 3160 3159 3158 3157 3156 3155 3155 3153 3152 3150 3149 3147 3146 3144 3143 3141 3140 3139 3137 3137 3136 3136 3136 3135 3135 3134 3134 3134 3134 3133 3131 3129 3127 3126 3124 3123 3121 3118 3117 3115 3114 3115 3114 3114 3111 3104 3102 3102 3100 3097 3094 3092 3091 3088 3088 3087 3086 3085 3084 3081
3176 3176 3176 3176 3175 3175 3175 3174 3174 3173 3173 3173 3172 3172 3171 3171 3170 3169 3168 3168 3167 3165 3164 3164 3163 3161 3159 3159 3158 3157 3156 3155 3155 3154 3153 3152 3150 3149 3147 3146 3145 3143 3142 3139 3138 3137 3136 3135 3135 3135 3135 3135 3134 3134 3133 3133 3132 3131 3129 3127 3125 3123 3122 3121 3120 3117 3115 3114 3112 3112 3111 3111 3110 3104 3099 3098 3096 3093 3090 3088 3086 3084 3084 3084 3083 3082 3080 3078
3174 3174 3174 3173 3173 3173 3172 3172 3171 3171 3170 3170 3170 3170 3169 3168 3167 3166 3166 3166 3165 3164 3163 3161 3160 3159 3157 3156 3156 3155 3154 3154 3153 3152 3151 3150 3149 3147 3146 3145 3143 3142 3140 3138 3137 3136 3135 3134 3134 3134 3134 3133 3133 3132 3131 3130 3129 3128 3127 3125 3123 3121 3119 3119 3118 3114 3112 3111 3109 3109 3109 3107 3107 3103 3098 3095 3092 3089 3087 3085 3083 3082 3082 3080 3079 3078 3077 3075
3171 3171 3171 3171 3171 3170 3170 3169 3169 3168 3167 3167 3166 3166 3166 3165 3163 3162 3161 3161 3162 3161 3160 3159 3157 3156 3154 3153 3153 3153 3152 3152 3151 3150 3149 3148 3147 3146 3144 3143 3142 3140 3139 3138 3136 3134 3133 3132 3132 3132 3132 3131 3130 3130 3129 3127 3126 3125 3124 3122 3120 3118 3116 3116 3116 3112 3110 3108 3106 3106 3105 3101 3102 3101 3096 3093 3090 3086 3084 3083 3080 3080 3079 3078 3076 3075 3074 3072
3168 3168 3168 3168 3168 3168 3167 3167 3166 3166 3165 3164 3164 3164 3163 3162 3161 3159 3157 3157 3157 3157 3156 3155 3153 3152 3151 3150 3150 3150 3150 3149 3149 3148 3147 3146 3145 3144 3143 3142 3140 3139 3138 3136 3134 3132 3131 3130 3130 3130 3130 3129 3128 3127 3126 3125 3124 3122 3121 3119 3117 3116 3114 3113 3113 3111 3109 3106 3102 3103 3100 3097 3098 3096 3092 3089 3087 3084 3082 3080 3078 3078 3077 3075 3074 3072 3071 3070
3166 3166 3166 3165 3165 3165 3164 3164 3163 3163 3163 3162 3161 3161 3161 3160 3159 3158 3156 3154 3153 3153 3152 3151 3149 3148 3148 3147 3147 3148 3147 3147 3147 3146 3146 3144 3143 3142 3141 3140 3138 3137 3136 3134 3132 3131 3129 3129 3128 3128 3127 3126 3125 3124 3123 3121 3120 3120 3119 3117 3115 3114 3112 3110 3109 3108 3107 3104 3100 3098 3094 3092 3093 3090 3087 3085 3083 3082 3080 3077 3076 3076 3074 3073 3071 3069 3068 3067
3163 3163 3163 3163 3163 3162 3161 3161 3161 3160 3160 3159 3159 3159 3158 3158 3157 3155 3154 3152 3150 3150 3149 3147 3146 3145 3145 3145 3145 3145 3145 3145 3144 3144 3144 3142 3141 3140 3139 3138 3135 3134 3133 3132 3131 3129 3127 3127 3126 3125 3124 3123 3122 3121 3120 3118 3117 3117 3116 3115 3113 3111 3110 3108 3106 3104 3102 3100 3098 3096 3090 3086 3087 3085 3081 3082 3080 3078 3077 3073 3073 3073 3072 3071 3068 3066 3065 3065
3160 3160 3160 3160 3160 3159 3159 3158 3158 3157 3157 3157 3156 3156 3156 3155 3154 3153 3151 3149 3147 3147 3146 3144 3143 3142 3142 3143 3143 3143 3143 3143 3142 3142 3141 3140 3140 3138 3137 3136 3133 3132 3131 3129 3129 3126 3124 3124 3123 3122 3121 3120 3119 3118 3117 3115 3114 3114 3112 3111 3110 3109 3108 3106 3105 3102 3098 3096 3096 3096 3089 3080 3082 3082 3078 3078 3078 3075 3073 3070 3069 3069 3068 3067 3065 3064 3063 3062
3157 3156 3157 3157 3157 3157 3156 3155 3155 3155 3154 3154 3154 3154 3153 3153 3152 3151 3149 3146 3143 3143 3142 3141 3141 3140 3141 3141 3142 3142 3141 3140 3140 3139 3139 3138 3138 3136 3135 3134 3131 3129 3128 3126 3125 3123 3121 3121 3120 3119 3118 3117 3116 3114 3114 3113 3111 3110 3108 3108 3108 3107 3105 3104 3103 3100 3097 3094 3094 3097 3093 3081 3078 3079 3076 3075 3075 3072 3069 3066 3065 3066 3065 3063 3061 3060 3060 3059
3153 3153 3153 3153 3154 3154 3153 3152 3153 3152 3151 3152 3151 3151 3151 3151 3150 3149 3147 3144 3140 3139 3139 3139 3138 3138 3139 3140 3140 3140 3138 3137 3137 3137 3136 3136 3135 3134 3133 3131 3129 3126 3125 3124 3121 3119 3118 3118 3117 3117 3115 3114 3113 3112 3111 3111 3109 3107 3106 3105 3105 3104 3103 3101 3100 3098 3095 3092 3090 3092 3093 3083 3075 3075 3074 3073 3072 3069 3066 3064 3063 3063 3062 3059 3057 3057 3057 3056
3150 3150 3150 3150 3150 3150 3150 3150 3150 3149 3149 3149 3148 3149 3149 3149 3149 3149 3148 3145 3138 3136 3137 3136 3136 3136 3137 3137 3137 3137 3136 3135 3134 3133 3133 3133 3132 3131 3129 3128 3127 3124 3123 3122 3118 3116 3116 3115 3114 3114 3112 3110 3110 3110 3109 3108 3107 3105 3104 3103 3102 3101 3100 3098 3097 3095 3093 3090 3085 3086 3090 3083 3071 3069 3071 3069 3069 3066 3062 3061 3061 3060 3058 3056 3054 3054 3054 3054
3146 3146 3146 3147 3147 3147 3147 3147 3147 3147 3146 3146 3146 3146 3146 3147 3147 3147 3149 3145 3137 3133 3134 3134 3134 3134 3135 3135 3134 3134 3133 3133 3132 3130 3130 3130 3129 3128 3127 3125 3124 3122 3121 3119 3115 3114 3113 3112 3111 3110 3108 3107 3107 3107 3106 3106 3104 3102 3101 3100 3099 3098 3096 3096 3094 3091 3091 3088 3081 3080 3085 3080 3068 3065 3067 3066 3064 3062 3060 3059 3057 3056 3054 3052 3051 3051 3052 3051
3142 3143 3143 3143 3143 3143 3143 3143 3144 3144 3143 3143 3143 3143 3144 3145 3145 3147 3148 3142 3134 3132 3132 3132 3132 3132 3132 3132 3132 3132 3131 3130 3130 3128 3126 3126 3126 3126 3124 3122 3120 3118 3117 3115 3112 3110 3109 3108 3108 3106 3105 3103 3103 3103 3103 3103 3101 3100 3099 3097 3095 3094 3093 3092 3090 3089 3089 3083 3077 3077 3078 3077 3069 3062 3062 3062 3060 3058 3057 3056 3054 3052 3051 3049 3049 3049 3049 3048
3138 3139 3139 3139 3139 3139 3140 3140 3141 3141 3140 3140 3140 3141 3142 3142 3144 3146 3144 3137 3132 3130 3129 3129 3130 3130 3130 3130 3130 3129 3129 3127 3126 3125 3123 3121 3122 3122 3121 3120 3117 3113 3111 3110 3107 3106 3105 3105 3104 3102 3102 3101 3100 3100 3100 3100 3099 3097 3097 3095 3092 3091 3090 3088 3086 3088 3086 3079 3075 3074 3074 3074 3067 3060 3059 3059 3057 3056 3054 3053 3051 3050 3049 3047 3047 3047 3047 3046
3134 3134 3135 3135 3135 3136 3136 3137 3137 3137 3137 3137 3137 3138 3139 3140 3141 3140 3137 3134 3132 3128 3127 3128 3128 3127 3128 3128 3127 3127 3126 3124 3122 3120 3119 3118 3118 3118 3118 3117 3114 3111 3107 3105 3104 3102 3100 3100 3100 3098 3098 3098 3097 3097 3097 3096 3095 3094 3094 3094 3092 3090 3088 3086 3084 3084 3081 3075 3072 3071 3072 3069 3060 3056 3058 3057 3055 3054 3052 3051 3050 3048 3047 3045 3045 3045 3044 3043
3129 3130 3131 3131 3131 3132 3132 3133 3134 3134 3133 3134 3134 3135 3137 3138 3135 3132 3132 3133 3131 3126 3125 3126 3126 3125 3125 3124 3124 3124 3122 3121 3119 3117 3115 3115 3114 3114 3114 3113 3113 3111 3106 3103 3102 3098 3095 3093 3094 3094 3093 3094 3095 3094 3094 3092 3092 3091 3091 3092 3092 3091 3090 3086 3082 3079 3076 3072 3069 3069 3070 3062 3052 3050 3053 3052 3050 3049 3048 3049 3047 3045 3044 3043 3041 3041 3040 3039
3124 3125 3126 3126 3127 3128 3128 3129 3130 3130 3130 3130 3131 3131 3133 3132 3129 3128 3128 3129 3128 3125 3124 3124 3123 3123 3122 3121 3121 3121 3119 3116 3115 3113 3112 3112 3110 3109 3110 3110 3110 3109 3106 3103 3100 3097 3094 3090 3089 3091 3090 3090 3091 3092 3092 3091 3090 3089 3088 3089 3088 3089 3090 3084 3078 3076 3074 3069 3067 3068 3066 3056 3048 3046 3047 3047 3046 3045 3044 3044 3043 3041 3040 3039 3038 3038 3037 3034
3119 3120 3121 3122 3123 3124 3125 3125 3125 3126 3126 3126 3127 3127 3126 3125 3124 3124 3124 3124 3124 3123 3122 3122 3121 3119 3118 3117 3117 3117 3117 3113 3110 3110 3109 3108 3106 3105 3105 3105 3106 3106 3104 3102 3099 3096 3093 3088 3087 3088 3087 3087 3088 3088 3089 3090 3089 3087 3086 3086 3084 3084 3085 3081 3075 3074 3074 3070 3063 3062 3058 3051 3048 3046 3043 3043 3042 3040 3040 3039 3038 3038 3037 3036 3035 3034 3033 3029
3114 3115 3116 3117 3118 3120 3121 3121 3121 3121 3121 3122 3122 3119 3117 3118 3120 3121 3120 3120 3121 3120 3120 3119 3118 3116 3114 3113 3112 3112 3113 3111 3108 3107 3105 3103 3101 3100 3100 3100 3101 3102 3100 3099 3098 3095 3091 3086 3084 3085 3084 3084 3084 3085 3086 3087 3086 3084 3083 3083 3081 3081 3081 3079 3075 3073 3076 3072 3059 3053 3051 3047 3048 3045 3039 3040 3039 3037 3036 3034 3034 3034 3034 3033 3031 3029 3028 3024
3109 3109 3111 3112 3115 3116 3116 3117 3117 3116 3116 3117 3114 3110 3111 3113 3115 3117 3116 3116 3117 3117 3118 3116 3114 3113 3112 3110 3109 3109 3109 3107 3105 3104 3102 3099 3097 3095 3096 3097 3097 3098 3097 3096 3095 3093 3090 3084 3081 3081 3081 3080 3081 3081 3082 3082 3082 3081 3080 3079 3079 3080 3079 3079 3077 3074 3077 3072 3055 3047 3047 3044 3043 3041 3036 3036 3036 3034 3032 3031 3030 3030 3029 3028 3026 3024 3023 3020
3103 3104 3105 3107 3111 3112 3112 3112 3112 3111 3112 3110 3107 3105 3107 3108 3110 3113 3112 3112 3113 3114 3114 3113 3111 3110 3109 3108 3107 3106 3106 3104 3102 3101 3098 3096 3093 3091 3092 3094 3094 3094 3093 3093 3092 3090 3089 3083 3077 3076 3077 3077 3077 3078 3077 3077 3078 3077 3077 3077 3077 3077 3076 3076 3077 3075 3074 3069 3052 3042 3042 3040 3038 3036 3034 3034 3032 3031 3030 3029 3028 3027 3025 3023 3021 3020 3018 3016
3098 3098 3098 3101 3107 3108 3108 3107 3106 3106 3105 3102 3100 3100 3101 3102 3105 3108 3108 3108 3109 3109 3109 3108 3108 3107 3106 3105 3105 3104 3103 3101 3100 3099 3095 3092 3090 3087 3088 3091 3090 3089 3089 3090 3088 3087 3087 3083 3075 3071 3073 3073 3072 3072 3072 3072 3073 3073 3073 3073 3072 3072 3072 3072 3072 3070 3069 3064 3053 3043 3036 3033 3033 3033 3033 3032 3029 3029 3028 3027 3025 3023 3020 3019 3017 3015 3013 3011
3094 3093 3091 3096 3102 3103 3103 3102 3100 3100 3097 3094 3094 3095 3096 3098 3099 3102 3103 3104 3105 3105 3104 3104 3104 3103 3101 3101 3102 3101 3099 3098 3096 3095 3092 3089 3087 3084 3085 3086 3085 3085 3086 3085 3085 3084 3084 3082 3074 3069 3069 3068 3066 3066 3066 3067 3068 3068 3068 3068 3067 3067 3068 3068 3066 3064 3064 3060 3056 3047 3033 3026 3030 3031 3031 3031 3029 3028 3027 3024 3021 3018 3015 3014 3013 3011 3009 3007
3089 3086 3084 3091 3097 3097 3097 3095 3092 3091 3089 3088 3089 3091 3092 3093 3094 3096 3097 3099 3100 3099 3099 3100 3100 3099 3097 3097 3097 3098 3097 3094 3091 3091 3087 3084 3084 3083 3081 3081 3081 3082 3082 3080 3080 3080 3080 3078 3072 3068 3065 3063 3061 3062 3063 3063 3063 3062 3062 3061 3062 3062 3064 3064 3061 3058 3057 3054 3052 3047 3032 3022 3027 3030 3028 3029 3028 3026 3024 3021 3017 3013 3011 3010 3009 3007 3005 3002
3082 3078 3079 3086 3089 3090 3091 3087 3084 3085 3083 3081 3084 3086 3088 3089 3089 3090 3091 3093 3094 3094 3095 3094 3093 3094 3093 3092 3093 3094 3093 3089 3087 3086 3082 3080 3081 3081 3078 3077 3076 3077 3077 3076 3075 3075 3075 3074 3070 3065 3063 3061 3059 3059 3059 3059 3058 3058 3057 3056 3057 3058 3057 3058 3055 3051 3051 3048 3045 3044 3032 3019 3022 3026 3025 3025 3024 3022 3020 3015 3011 3009 3007 3006 3004 3002 3000 2997
3074 3073 3076 3080 3081 3083 3083 3079 3077 3078 3075 3075 3079 3081 3083 3083 3083 3084 3086 3086 3086 3088 3089 3088 3087 3087 3086 3087 3088 3088 3088 3085 3080 3079 3079 3077 3077 3077 3075 3074 3073 3073 3073 3071 3071 3071 3072 3071 3067 3062 3060 3058 3057 3056 3054 3054 3054 3053 3051 3051 3053 3051 3050 3051 3049 3047 3046 3042 3040 3041 3031 3017 3016 3021 3021 3020 3019 3018 3015 3010 3007 3005 3003 3002 3000 2998 2995 2993
3070 3070 3070 3072 3072 3073 3072 3069 3070 3070 3069 3072 3074 3074 3076 3077 3076 3077 3079 3079 3080 3082 3083 3081 3081 3081 3080 3082 3082 3082 3084 3081 3074 3074 3075 3074 3074 3073 3071 3070 3070 3069 3068 3067 3067 3067 3067 3066 3065 3063 3059 3055 3052 3052 3050 3048 3048 3047 3045 3047 3047 3047 3049 3048 3044 3045 3041 3032 3033 3035 3024 3013 3013 3016 3017 3016 3015 3013 3011 3006 3002 3001 2999 2998 2996 2994 2991 2988
3065 3064 3063 3063 3063 3063 3061 3062 3065 3065 3065 3068 3067 3067 3069 3069 3068 3070 3072 3073 3074 3076 3076 3075 3075 3076 3075 3076 3076 3076 3077 3075 3071 3070 3070 3070 3070 3069 3067 3067 3066 3064 3063 3063 3062 3061 3061 3060 3059 3060 3058 3052 3048 3047 3045 3043 3043 3041 3040 3042 3042 3044 3045 3042 3041 3042 3033 3024 3026 3025 3015 3010 3013 3014 3013 3013 3012 3010 3007 3003 2999 2997 2997 2995 2993 2990 2987 2984
3059 3056 3054 3054 3055 3054 3053 3056 3060 3059 3060 3063 3060 3059 3061 3060 3060 3063 3066 3068 3069 3070 3071 3069 3070 3071 3070 3070 3071 3069 3067 3068 3069 3067 3065 3066 3065 3063 3063 3062 3060 3059 3058 3058 3057 3056 3054 3052 3051 3052 3050 3046 3044 3044 3042 3041 3039 3036 3036 3037 3038 3039 3039 3038 3037 3032 3023 3021 3018 3013 3010 3009 3009 3010 3011 3010 3009 3006 3002 2998 2995 2994 2994 2992 2988 2985 2982 2980
3050 3046 3044 3047 3049 3047 3045 3048 3051 3052 3055 3057 3053 3052 3054 3053 3054 3058 3059 3060 3063 3066 3065 3064 3064 3065 3064 3065 3066 3063 3060 3063 3064 3062 3062 3063 3060 3059 3058 3057 3055 3054 3054 3053 3052 3050 3048 3044 3043 3044 3041 3038 3040 3041 3040 3037 3035 3033 3032 3033 3033 3033 3033 3032 3026 3019 3021 3022 3009 3003 3010 3007 3001 3005 3007 3005 3004 3002 2997 2994 2991 2991 2990 2987 2984 2981 2978 2976
3039 3037 3038 3041 3042 3041 3038 3040 3044 3046 3049 3050 3048 3047 3047 3046 3049 3052 3052 3054 3057 3059 3058 3056 3056 3057 3058 3060 3060 3056 3055 3058 3058 3057 3057 3057 3056 3055 3053 3052 3051 3049 3049 3048 3046 3045 3043 3037 3036 3038 3035 3032 3036 3037 3035 3034 3031 3028 3028 3028 3028 3027 3025 3022 3017 3015 3021 3016 3001 3000 3008 3001 2997 3002 3002 3000 3001 2997 2992 2989 2988 2988 2986 2983 2980 2977 2974 2971
3032 3032 3034 3034 3034 3034 3033 3036 3040 3041 3041 3042 3040 3037 3037 3039 3042 3045 3049 3051 3049 3048 3050 3049 3048 3051 3053 3054 3054 3050 3049 3052 3052 3051 3051 3052 3052 3050 3048 3047 3046 3044 3043 3042 3040 3040 3037 3031 3030 3033 3029 3027 3029 3029 3029 3029 3026 3022 3022 3022 3021 3020 3018 3015 3012 3013 3015 3008 2999 3002 3002 2992 2993 2998 2996 2997 2997 2991 2987 2986 2984 2984 2982 2979 2977 2973 2969 2967
3024 3025 3029 3029 3028 3029 3030 3031 3033 3031 3031 3034 3030 3026 3031 3034 3033 3038 3044 3045 3041 3040 3042 3041 3041 3046 3047 3048 3047 3042 3041 3046 3047 3046 3047 3048 3046 3045 3043 3041 3040 3039 3038 3036 3034 3034 3032 3027 3026 3027 3025 3021 3021 3023 3024 3023 3020 3016 3013 3013 3015 3014 3011 3008 3007 3007 3007 3001 2997 2999 2995 2986 2987 2992 2992 2993 2991 2986 2983 2982 2980 2981 2978 2975 2972 2968 2965 2963
3019 3021 3025 3026 3022 3023 3024 3023 3025 3024 3022 3020 3018 3019 3025 3024 3025 3033 3036 3035 3035 3035 3036 3034 3035 3040 3041 3040 3038 3033 3035 3042 3042 3041 3044 3043 3040 3040 3038 3035 3035 3034 3031 3029 3029 3028 3027 3023 3022 3024 3022 3016 3015 3017 3017 3016 3016 3009 3001 3001 3005 3004 3000 2998 2998 2999 2999 2994 2992 2993 2987 2981 2983 2989 2989 2987 2985 2982 2979 2977 2977 2977 2974 2971 2968 2964 2962 2959
3016 3016 3018 3019 3015 3016 3016 3016 3018 3017 3009 3006 3009 3014 3017 3016 3021 3029 3028 3025 3028 3029 3030 3031 3032 3033 3033 3030 3028 3028 3033 3037 3037 3037 3039 3037 3035 3034 3031 3028 3028 3026 3024 3024 3023 3022 3021 3019 3019 3021 3018 3013 3012 3013 3011 3014 3012 2997 2984 2987 2993 2993 2991 2990 2990 2991 2990 2988 2986 2983 2978 2978 2983 2985 2984 2982 2981 2978 2976 2975 2974 2972 2970 2968 2964 2961 2959 2955